Weather in Atemar

Russia / Republic of Mordovia     54°10′57″N   45°24′00″E
temp.,
°C
wind,
m/s
gust,
m/s
humid.,
%
clouds,
%
prec.,
mm/h
press.,
hPa
HPBL,
m
4 march, thu
thu400:00−7wsw5119531 0.0 1008280
03:00−3wsw6129465 0.1 1007640
06:00−2wsw71393100 0.2 1004715
09:00−2wsw91491100 0.4 1001894
12:000wsw101694100 0.5 999986
15:000wsw101693100 0.7 9981101
18:00−1w71396100 0.6 999790
21:00−1w4897100 1.8 1000450
5 march, fri
fri500:00−4wnw2497100 0.7 999137
03:00−4wnw2298100 1.5 100075
06:00−5n2397100 0.6 100173
09:00−6nnw3594100 0.8 1004232
12:00−6nnw349053 0.0 1006314
15:00−5wnw358940 0.0 1008382
18:00−9wsw23930 0.0 101021
21:00−9sw359520 0.0 101287
6 march, sat
sat600:00−10wsw489798 0.1 1013165
03:00−12w349786 0.1 101477
06:00−15wnw239776 0.0 101522
09:00−13nw249242 0.0 1016173
12:00−11nnw238117 0.0 1016293
15:00−10nnw238518 0.0 1015276
18:00−16wsw11900 0.0 101520
21:00−16wsw118236 0.0 101620
7 march, sun
sun700:00−15sw228582 0.0 101520
03:00−14ssw349691 0.2 101582
06:00−13sw4895100 0.3 1014235
09:00−11sw5896100 0.4 1013289
12:00−8sw7118455 0.0 1010706
15:00−7sw9148676 0.0 1007878
18:00−7ssw101793100 0.4 10031075
21:00−5sw101792100 1.3 10001009
8 march, mon
mon800:00−6wnw91485100 0.9 999747
03:00−12wsw5118374 0.9 1001205
06:00−13sw59820 0.0 1002157
09:00−10ssw512760 0.0 1001299
12:00−6ssw6109040 0.1 998551
15:00−4wsw9139370 1.0 9961082
18:00−9w91682100 0.4 999853
21:00−8w11178796 0.8 1003931